Museu de l'Esquerda (Osona)





Hora UTC 17:10
Temperatura 14.5 ºC
Humitat 72.0 %
Pressió 1012.0 hPa
Pluja 0.0 mm
Velocitat vent 3.2 km/h
Direcció vent N

Dades diàries 2024-04-16



Hora UTC (hivern +1h; estiu +2h)
Temperatura (ºC) Humitat (%) Pressió (hPa) Velocitat vent (km/h) Precipitació (mm)
Hora UTC Aire Humitat Pressió Vel. Dir. Vel. Max Dir. Intent. màx 5 min.
00:05 10.7 76.0 1017.4 0.0 N 0.0 0.0
00:10 10.7 76.0 1017.4 1.6 N 3.2 0.0
00:15 10.7 77.0 1017.3 1.6 N 3.2 0.0
00:20 10.6 77.0 1017.3 0.0 N 4.8 0.0
00:25 10.4 77.0 1017.1 1.6 N 3.2 0.0
00:30 10.4 77.0 1017.1 0.0 N 3.2 0.0
00:35 10.3 76.0 1017.0 0.0 N 3.2 0.0
00:40 10.1 77.0 1017.0 1.6 N 4.8 0.0
00:45 9.9 78.0 1017.1 0.0 N 4.8 0.0
00:50 9.8 78.0 1017.0 0.0 N 6.4 0.0
00:55 9.8 78.0 1016.9 0.0 N 6.4 0.0
01:00 9.6 78.0 1016.9 1.6 N 1.6 0.0
01:05 9.6 79.0 1016.9 0.0 N 1.6 0.0
01:10 9.5 79.0 1016.9 0.0 N 1.6 0.0
01:15 9.4 79.0 1016.7 0.0 N 3.2 0.0
01:20 9.3 79.0 1016.7 0.0 N 4.8 0.0
01:25 9.2 79.0 1016.7 0.0 N 4.8 0.0
01:30 9.2 80.0 1016.6 0.0 N 0.0 0.0
01:35 9.1 81.0 1016.5 1.6 N 1.6 0.0
01:40 8.9 81.0 1016.6 0.0 N 1.6 0.0
01:45 8.9 82.0 1016.6 0.0 N 3.2 0.0
01:50 8.8 82.0 1016.4 0.0 N 3.2 0.0
01:55 8.8 82.0 1016.5 0.0 N 1.6 0.0
02:00 8.7 83.0 1016.3 0.0 N 3.2 0.0
02:05 8.6 84.0 1016.3 0.0 N 3.2 0.0
02:10 8.4 84.0 1016.3 0.0 N 1.6 0.0
02:15 8.3 84.0 1016.2 1.6 N 1.6 0.0
02:20 8.2 84.0 1016.2 0.0 N 1.6 0.0
02:25 8.2 85.0 1016.0 0.0 N 0.0 0.0
02:30 8.1 85.0 1016.0 0.0 N 0.0 0.0
02:35 8.0 85.0 1016.1 0.0 N 0.0 0.0
02:40 7.9 85.0 1015.8 0.0 N 0.0 0.0
02:45 7.9 85.0 1015.9 0.0 N 1.6 0.0
02:50 7.8 85.0 1016.1 0.0 N 1.6 0.0
02:55 7.7 85.0 1016.1 0.0 N 0.0 0.0
03:00 7.7 86.0 1016.1 0.0 N 0.0 0.0
03:05 7.7 86.0 1016.0 0.0 N 0.0 0.0
03:10 7.6 86.0 1016.1 0.0 N 0.0 0.0
03:15 7.6 86.0 1016.1 0.0 N 0.0 0.0
03:20 7.4 87.0 1016.1 1.6 N 3.2 0.0
03:25 7.4 87.0 1016.0 1.6 N 3.2 0.0
03:30 7.3 87.0 1015.9 0.0 N 3.2 0.0
03:35 7.3 87.0 1015.8 0.0 N 3.2 0.0
03:40 7.1 87.0 1015.7 0.0 N 3.2 0.0
03:45 7.0 87.0 1015.6 3.2 N 3.2 0.0
03:50 6.9 87.0 1015.5 0.0 N 4.8 0.0
03:55 6.9 87.0 1015.6 0.0 N 4.8 0.0
04:00 6.9 87.0 1015.4 0.0 N 0.0 0.0
04:05 6.8 87.0 1015.5 0.0 N 1.6 0.0
04:10 6.8 87.0 1015.6 0.0 N 0.0 0.0
04:15 6.7 87.0 1015.7 0.0 N 0.0 0.0
04:20 6.6 87.0 1015.7 0.0 N 0.0 0.0
04:25 6.6 87.0 1015.9 1.6 N 3.2 0.0
04:30 6.5 88.0 1015.6 0.0 N 3.2 0.0
04:35 6.5 88.0 1015.5 0.0 N 1.6 0.0
04:40 6.6 88.0 1015.7 1.6 N 1.6 0.0
04:45 6.6 88.0 1015.9 0.0 N 1.6 0.0
04:50 6.5 88.0 1015.8 3.2 N 3.2 0.0
04:55 6.4 89.0 1016.0 3.2 N 3.2 0.0
05:00 6.4 89.0 1016.2 0.0 N 3.2 0.0
05:05 6.3 89.0 1016.3 0.0 N 3.2 0.0
05:10 6.3 89.0 1016.2 1.6 N 8.0 0.0
05:15 6.2 89.0 1016.1 1.6 N 8.0 0.0
05:20 6.2 89.0 1016.1 1.6 N 3.2 0.0
05:25 6.2 89.0 1015.9 4.8 N 4.8 0.0
05:30 6.2 89.0 1015.8 0.0 N 6.4 0.0
05:35 6.2 89.0 1016.0 1.6 N 6.4 0.0
05:40 6.2 89.0 1015.8 1.6 N 4.8 0.0
05:45 6.2 89.0 1015.9 0.0 N 4.8 0.0
05:50 6.2 89.0 1016.0 0.0 N 4.8 0.0
05:55 6.2 90.0 1015.9 0.0 N 1.6 0.0
06:00 6.3 90.0 1015.8 0.0 N 3.2 0.0
06:05 6.3 90.0 1016.0 0.0 N 3.2 0.0
06:10 6.5 90.0 1016.0 0.0 N 1.6 0.0
06:15 6.6 90.0 1016.0 0.0 N 1.6 0.0
06:20 6.7 90.0 1015.9 1.6 N 1.6 0.0
06:25 6.8 90.0 1016.0 0.0 N 3.2 0.0
06:30 6.8 90.0 1015.9 0.0 N 3.2 0.0
06:35 7.1 90.0 1015.8 0.0 N 0.0 0.0
06:40 7.4 91.0 1015.8 0.0 ESE 0.0 0.0
06:45 7.9 91.0 1015.8 0.0 N 0.0 0.0
06:50 8.4 90.0 1015.8 0.0 N 3.2 0.0
06:55 8.7 90.0 1015.8 0.0 N 3.2 0.0
07:00 9.0 88.0 1015.6 0.0 N 0.0 0.0
07:05 9.3 86.0 1015.7 0.0 N 1.6 0.0
07:10 9.7 84.0 1015.7 1.6 N 4.8 0.0
07:15 9.9 82.0 1015.6 0.0 N 4.8 0.0
07:20 10.1 80.0 1015.6 0.0 N 1.6 0.0
07:25 10.4 77.0 1015.4 0.0 N 1.6 0.0
07:30 10.7 75.0 1015.4 0.0 N 4.8 0.0
07:35 11.3 75.0 1015.4 0.0 N 3.2 0.0
07:40 11.5 71.0 1015.5 1.6 N 6.4 0.0
07:45 11.8 71.0 1015.4 1.6 N 6.4 0.0
07:50 11.9 69.0 1015.5 0.0 N 6.4 0.0
07:55 11.9 69.0 1015.3 0.0 N 4.8 0.0
08:00 12.6 69.0 1015.4 1.6 N 4.8 0.0
08:05 12.4 66.0 1015.3 0.0 N 6.4 0.0
08:10 12.8 69.0 1015.4 1.6 N 4.8 0.0
08:15 12.8 67.0 1015.3 4.8 N 4.8 0.0
08:20 12.8 67.0 1015.4 0.0 N 6.4 0.0
08:25 12.9 65.0 1015.3 0.0 N 9.7 0.0
08:30 12.7 66.0 1015.3 0.0 N 9.7 0.0
08:35 13.1 65.0 1015.2 0.0 N 4.8 0.0
08:40 13.2 66.0 1015.2 1.6 N 6.4 0.0
08:45 13.4 64.0 1015.1 1.6 N 8.0 0.0
08:50 13.7 65.0 1015.2 1.6 N 8.0 0.0
08:55 13.7 64.0 1015.2 0.0 N 6.4 0.0
09:00 13.8 65.0 1015.1 1.6 N 6.4 0.0
09:05 13.9 66.0 1015.1 1.6 N 6.4 0.0
09:10 13.8 63.0 1015.1 0.0 N 4.8 0.0
09:15 13.6 64.0 1015.2 0.0 N 4.8 0.0
09:20 13.7 63.0 1015.2 0.0 N 1.6 0.0
09:25 13.7 66.0 1015.0 1.6 N 3.2 0.0
09:30 14.1 65.0 1015.1 0.0 N 3.2 0.0
09:35 14.3 63.0 1015.1 1.6 N 4.8 0.0
09:40 14.8 64.0 1015.1 0.0 N 6.4 0.0
09:45 15.6 61.0 1014.9 3.2 N 6.4 0.0
09:50 15.9 61.0 1015.0 0.0 N 4.8 0.0
09:55 15.4 59.0 1014.9 4.8 N 8.0 0.0
10:00 15.4 59.0 1014.7 0.0 N 8.0 0.0
10:05 15.6 58.0 1014.6 6.4 N 8.0 0.0
10:10 16.1 62.0 1014.6 6.4 N 8.0 0.0
10:15 16.3 60.0 1014.7 3.2 N 9.7 0.0
10:20 16.3 57.0 1014.6 4.8 N 8.0 0.0
10:25 16.9 58.0 1014.5 3.2 N 6.4 0.0
10:30 17.2 54.0 1014.6 1.6 N 4.8 0.0
10:35 17.6 58.0 1014.4 4.8 N 8.0 0.0
10:40 17.2 55.0 1014.5 0.0 N 9.7 0.0
10:45 17.5 57.0 1014.4 6.4 N 9.7 0.0
10:50 17.2 54.0 1014.4 1.6 N 14.5 0.0
10:55 17.6 54.0 1014.3 3.2 N 14.5 0.0
11:00 18.2 54.0 1014.3 3.2 N 8.0 0.0
11:05 18.1 53.0 1014.3 1.6 N 8.0 0.0
11:10 18.2 54.0 1014.0 3.2 N 8.0 0.0
11:15 18.9 54.0 1014.1 9.7 N 14.5 0.0
11:20 18.9 51.0 1013.9 0.0 N 14.5 0.0
11:25 19.1 55.0 1013.9 4.8 N 9.7 0.0
11:30 18.5 52.0 1013.9 3.2 N 9.7 0.0
11:35 18.3 55.0 1013.7 6.4 N 9.7 0.0
11:40 18.2 52.0 1013.6 1.6 N 9.7 0.0
11:45 19.3 49.0 1013.4 6.4 N 8.0 0.0
11:50 19.6 53.0 1013.3 1.6 N 8.0 0.0
11:55 20.6 51.0 1013.2 3.2 N 16.1 0.0
12:00 20.1 51.0 1013.1 1.6 N 16.1 0.0
12:05 19.9 52.0 1013.0 4.8 N 14.5 0.0
12:10 19.8 49.0 1012.9 8.0 N 14.5 0.0
12:15 20.1 52.0 1012.9 3.2 N 17.7 0.0
12:20 19.6 49.0 1012.8 1.6 N 17.7 0.0
12:25 19.7 49.0 1012.8 1.6 N 14.5 0.0
12:30 19.3 52.0 1012.6 1.6 N 9.7 0.0
12:35 20.4 53.0 1012.7 1.6 N 16.1 0.0
12:40 19.8 52.0 1012.6 3.2 N 16.1 0.0
12:45 20.5 53.0 1012.5 1.6 N 9.7 0.0
12:50 21.4 46.0 1012.5 6.4 N 14.5 0.0
12:55 21.8 44.0 1012.5 9.7 N 19.3 0.0
13:00 21.7 43.0 1012.4 3.2 N 19.3 0.0
13:05 21.8 40.0 1012.4 16.1 N 19.3 0.0
13:10 21.8 42.0 1012.4 12.9 N 19.3 0.0
13:15 21.8 41.0 1012.3 6.4 N 20.9 0.0
13:20 21.9 41.0 1012.3 9.7 N 20.9 0.0
13:25 21.8 41.0 1012.3 14.5 N 19.3 0.0
13:30 22.1 41.0 1012.3 1.6 N 14.5 0.0
13:35 21.9 41.0 1012.1 4.8 N 9.7 0.0
13:40 21.4 42.0 1012.0 1.6 N 9.7 0.0
13:45 21.7 40.0 1011.9 3.2 N 17.7 0.0
13:50 22.3 42.0 1011.9 9.7 N 20.9 0.0
13:55 22.2 40.0 1011.8 0.0 N 20.9 0.0
14:00 21.5 42.0 1011.8 1.6 NNW 9.7 0.0
14:05 22.4 41.0 1011.6 12.9 SW 16.1 0.0
14:10 22.4 38.0 1011.7 3.2 N 17.7 0.0
14:15 22.5 39.0 1011.5 3.2 N 16.1 0.0
14:20 22.4 40.0 1011.4 16.1 N 19.3 0.0
14:25 22.5 39.0 1011.2 19.3 N 25.7 0.0
14:30 22.5 39.0 1011.3 9.7 N 25.7 0.0
14:35 22.3 40.0 1011.2 14.5 N 24.1 0.0
14:40 22.6 44.0 1011.1 12.9 N 22.5 0.0
14:45 22.3 44.0 1011.0 6.4 N 22.5 0.0
14:50 22.3 44.0 1010.9 14.5 N 24.1 0.0
14:55 22.2 44.0 1011.0 17.7 N 24.1 0.0
15:00 21.8 45.0 1011.0 12.9 N 20.9 0.0
15:05 21.7 47.0 1010.9 8.0 N 22.5 0.0
15:10 21.6 46.0 1010.9 9.7 N 19.3 0.0
15:15 21.3 46.0 1010.9 6.4 N 19.3 0.0
15:20 21.3 47.0 1010.9 4.8 N 16.1 0.0
15:25 21.7 46.0 1010.9 6.4 S 19.3 0.0
15:30 21.6 49.0 1010.9 0.0 N 19.3 0.0
15:35 21.1 54.0 1010.7 9.7 N 37.0 0.0
15:40 20.4 57.0 1010.9 6.4 N 37.0 0.0
15:45 19.8 57.0 1010.9 12.9 N 25.7 0.0
15:50 18.8 60.0 1010.9 6.4 ENE 25.7 0.0
15:55 18.0 62.0 1011.0 8.0 N 20.9 0.0
16:00 17.5 64.0 1011.1 6.4 N 20.9 0.0
16:05 17.2 65.0 1011.1 4.8 N 24.1 0.0
16:10 16.7 66.0 1011.2 14.5 N 24.1 0.0
16:15 16.3 67.0 1011.2 16.1 N 22.5 0.0
16:20 16.1 68.0 1011.2 12.9 N 20.9 0.0
16:25 15.7 68.0 1011.4 12.9 N 20.9 0.0
16:30 15.4 70.0 1011.3 9.7 N 25.7 0.0
16:35 15.3 70.0 1011.3 20.9 N 25.7 0.0
16:40 15.1 71.0 1011.2 12.9 N 22.5 0.0
16:45 14.9 71.0 1011.4 4.8 N 19.3 0.0
16:50 14.8 72.0 1011.7 6.4 N 20.9 0.0
16:55 14.7 72.0 1011.7 9.7 N 20.9 0.0
17:00 14.7 72.0 1011.8 4.8 N 19.3 0.0
17:05 14.6 72.0 1011.9 9.7 N 17.7 0.0
17:10 14.5 72.0 1012.0 3.2 N 19.3 0.0
Màxima 22.6 91.0 1017.4 20.9 N 37.0 0.0
Mínima 6.1 38.0 1010.7
Total 0.0